CAPE
1373 1402 1349 1369 1530 1694 1707 1772 1961 2117 2334 2656 2908 2846 2769 2867 2990 3054 3343 3747 3924 4096 4379 4598 4546 4452 4528 4408 4473 4624 4600 4600 4354 4281 4037 3892 3454 3437 3481 3262 3110 2833 2428 2102 1890 1376 1249 888 758 728 832 976 841 848 918 792 808 901 948 969 833 859 937
1271 1279 1300 1365 1544 1728 1872 1926 2059 2118 2313 2604 2844 2949 2706 2937 3044 3077 3340 3688 3966 4003 4275 4542 4601 4522 4506 4548 4521 4590 4780 4654 4620 4427 4204 3893 3620 3540 3464 3300 3241 3056 2651 2154 1860 1421 1342 1150 890 860 903 1059 817 914 949 941 936 989 816 1012 941 1054 804
1254 1265 1314 1407 1535 1724 1960 2002 2133 2233 2328 2380 2498 2665 2654 2916 3215 3168 3431 3641 4006 4111 4196 4599 4610 4560 4492 4556 4559 4697 4788 4752 4730 4671 4442 3955 3920 3638 3678 3483 3339 2957 2685 2195 1883 1673 1524 1383 1058 971 962 989 751 844 972 974 1059 903 786 1017 926 802 950
1180 1277 1362 1513 1711 1882 2045 2145 2266 2231 2194 2276 2456 2572 2796 3009 3251 3324 3453 3604 3966 4052 4119 4414 4650 4550 4556 4645 4716 4760 4838 4890 4798 4675 4340 4023 4080 3830 3708 3540 3369 3005 2494 2296 2008 1703 1474 1238 1159 1006 987 910 788 775 843 805 839 774 779 992 915 867 978
1050 1179 1392 1546 1668 1909 2093 2166 2230 2429 2178 2179 2402 2746 2900 3010 3232 3318 3429 3599 3636 3994 4067 4327 4408 4488 4508 4617 4672 4780 4864 4908 4785 4586 4282 4093 4092 3920 3634 3350 3272 3025 2730 2460 2034 1681 1362 1109 1076 1004 1086 944 844 789 844 843 643 790 777 952 825 662 763
1105 1325 1423 1499 1587 1855 2103 2101 2106 2227 2194 2091 2397 2789 2846 2770 2809 2826 3118 3484 3634 3832 4167 4281 4478 4480 4556 4694 4578 4619 4864 4894 4758 4520 4316 4184 4158 3735 3556 3436 3178 3059 2701 2425 1838 1524 1414 1026 749 922 946 914 660 514 673 714 616 630 742 786 637 510 404
1186 1468 1525 1624 1675 1726 1990 2120 2020 1999 2190 2174 2247 2666 2710 2559 2646 2606 2701 3238 3318 3676 3948 4031 4296 4495 4645 4692 4713 4834 4920 4796 4590 4353 4117 4070 3932 3708 3552 3423 3129 2828 2544 2184 1685 1274 1187 991 735 912 1002 767 664 478 470 664 554 508 542 547 671 604 659
1396 1744 1778 1722 1629 1603 1801 2009 1989 1946 2077 2242 2286 2512 2653 2510 2568 2568 2553 2686 3032 2912 3394 3469 4125 4511 4714 4660 4767 4775 4657 4426 4257 4170 3962 3880 3814 3614 3423 3279 2980 2722 2186 1936 1725 1294 850 901 848 978 965 716 503 476 540 645 708 568 435 563 600 653 549
1310 1639 1670 1494 1470 1455 1592 1897 1997 1954 2236 2386 2364 2642 2745 2587 2522 2644 2599 2651 2914 2814 3088 3085 3626 4438 4802 4704 4703 4697 4360 4096 3853 3586 3148 3427 3425 3224 3172 3054 2890 2468 2221 1844 1377 1362 848 845 906 1024 1112 859 550 642 730 816 919 682 526 566 607 608 476
1391 1660 1810 1567 1327 1166 1418 1714 2145 2294 2347 2646 2658 2794 2936 2750 2772 2707 2671 2629 2746 2900 2954 2990 3226 4186 4725 4592 4592 4172 3852 3814 3536 3213 2960 2945 2982 2861 2824 2769 2815 2530 2224 1584 868 1274 1200 942 1082 1179 1296 1047 681 721 869 896 924 754 574 788 875 730 608
1227 1714 1966 1682 1415 1278 1482 1851 2393 2664 2751 3040 3040 2949 3175 2993 2850 2810 2928 2776 2703 2868 2942 3146 3198 3945 4503 4408 4065 3894 3812 3697 3392 3176 2969 2974 2717 2771 2615 2426 2163 2187 1670 1308 904 1246 1420 1330 1329 1310 1412 1063 781 726 732 744 855 750 604 691 762 783 741
1850 1863 2044 1752 1618 1559 1838 2300 2776 3012 3112 3382 3324 3269 3437 3322 3012 2914 2966 3009 2844 2924 3112 3250 3283 3628 4100 3902 3746 3614 3524 3664 3198 3086 2957 2869 2674 2536 2426 2180 1714 1559 1172 1265 938 876 1012 1202 1233 1288 1286 1098 832 768 651 709 766 728 729 647 714 842 866
2072 1953 2032 1714 1928 1956 2404 2630 3195 3420 3656 3790 3492 3479 3589 3390 3184 2982 3290 3302 3028 3088 3300 3491 3467 3793 4025 3724 3438 3624 3638 3772 3368 3135 2786 2688 2642 2499 2093 1805 1684 1152 924 714 582 724 698 828 963 1091 1131 1144 1061 792 658 760 810 939 1035 978 820 891 1016
1468 1849 1928 2074 2172 2438 2785 3132 3527 3732 3984 3815 3598 3616 3638 3398 3252 3337 3492 3460 3373 3220 3327 3518 3750 4013 4056 3671 3446 3401 3573 3676 3295 2959 2674 2468 2508 2338 1972 2016 1530 1238 983 848 635 633 586 561 853 872 877 956 1080 990 814 800 954 1106 1062 840 849 912 1018
1839 1639 2027 2000 2436 2646 2935 3177 3533 3798 3796 3693 3608 3694 3667 3618 3542 3565 3656 3583 3621 3398 3415 3803 4127 4302 4124 3848 3579 3369 3184 3208 3032 2855 2890 2719 2852 2728 2457 2179 1866 1316 1132 1004 726 476 416 388 454 678 1015 1038 1161 1100 890 802 923 886 772 926 1066 1134 1070
1727 1531 1610 2061 2463 2629 2900 3106 3514 3591 3568 3602 3495 3581 3546 3566 3713 3666 3746 3683 3564 3576 3602 3990 4408 4430 4148 3718 3307 3092 2982 2538 2850 2776 2810 2527 2571 2628 2607 2244 1809 1312 1178 1092 704 752 713 369 406 532 996 1084 1190 1089 1053 995 896 837 672 792 1036 1154 1260
1785 1482 1526 2144 2616 2756 2842 3002 3217 3448 3552 3578 3464 3706 3679 3804 3839 3755 3553 3536 3670 3736 3662 4045 4450 4110 3862 3670 3343 2956 2819 2332 2387 2571 2648 2626 2543 2519 2577 2272 1982 1448 1367 1311 991 963 1134 999 826 729 971 1012 982 1086 1060 1024 963 881 817 716 506 848 702
1602 2014 1798 2175 2410 2626 2747 2858 3327 3477 3503 3404 3590 3868 3865 3911 3897 3872 3638 3733 3608 3745 3686 4131 4392 4014 3734 3442 3211 2873 2604 2544 2204 2134 2650 2799 2750 2539 2582 2402 2060 1677 1683 1534 1478 1387 1326 1216 1214 1244 1072 1009 971 1042 1138 1108 954 876 726 430 3 174 864
1764 2238 2161 2506 2578 2682 2725 2912 3194 3372 3272 3258 3499 3804 3793 4024 3934 3979 3798 3758 3717 3804 3838 4128 4171 3968 3784 3606 3204 2700 2599 2573 2382 2174 2279 2796 2788 2379 2282 2132 1978 1733 1602 1554 1560 1397 1607 1453 1425 1629 1463 1210 1168 1014 978 1044 906 780 522 116 0 0 232
1954 2004 2158 2250 2568 2685 2918 2832 2898 3150 3062 3310 3567 3602 3652 3752 3858 3945 3695 3484 3615 3847 3958 4335 4138 3779 3578 3490 3130 2803 2601 2622 2207 2207 2142 2527 2753 2459 2285 2186 2088 1723 1225 1337 1522 1377 1550 1232 1282 1564 1545 1332 1248 1123 1045 1010 647 526 416 0 0 0 80
2240 2186 2348 2427 2772 2653 2844 2879 2941 3058 2926 2992 2898 3126 3411 3659 3706 3842 3488 3554 3744 3882 4185 4349 4241 3808 3546 3276 3012 2508 2561 2356 2315 2176 2180 2282 2655 2618 2370 2246 2156 1875 1365 1091 1078 1438 1490 1196 1600 1576 1553 1306 1204 1296 1304 1270 614 484 380 0 0 0 4
1875 2115 2178 2344 2917 2699 2835 2664 2886 2868 3244 2946 2826 3171 3326 3494 3425 3414 3572 3820 4023 4089 4285 4241 4191 3798 3269 3092 2930 2745 2311 2291 2231 2220 2217 2282 2399 2606 2388 2122 1752 1662 1511 1276 1032 880 1050 1598 1296 1434 1504 1460 1408 1222 1266 1188 673 482 369 0 0 0 16
792 1837 2020 2360 2395 2418 2800 2909 3071 3336 3458 3212 3100 3212 3302 3360 3304 3442 3593 3813 3796 4036 4020 4060 4046 3684 3363 3087 2883 2380 2305 2174 2220 2296 2337 2392 2452 2366 2194 1861 1848 1770 1682 1593 1220 748 905 1094 593 1339 1449 1323 1410 1425 1362 1381 1452 694 421 311 83 0 247
617 1339 1585 1916 2166 2649 3137 3050 2994 3509 2982 3069 3078 3006 3066 3150 3223 3455 3704 3666 3754 3738 3836 3880 3927 3787 3552 3267 2890 2470 2314 2272 2229 2264 2274 2372 2610 2533 2364 2241 1744 1814 1701 1649 1148 841 556 1000 1106 1534 1368 1129 1252 1196 1276 1627 1412 1201 874 477 36 24 628
1023 1196 1744 2281 2784 3123 2848 3294 3286 2762 2773 2695 2704 2809 3190 3147 3350 3692 3822 3672 3574 3648 3846 3834 3854 3767 3535 3251 2894 2207 2340 2344 2381 2327 2300 2458 2611 2546 2381 1987 1608 1680 1650 1504 1280 952 978 993 816 1273 1373 1268 1298 1397 1446 1497 1234 984 932 848 772 654 676
1806 2250 2549 2740 2430 2472 2793 2892 2641 2390 2966 3118 3534 3639 3551 3519 3649 3700 3755 3779 3786 3762 3942 3841 3818 3828 3622 3232 2810 2212 2162 2438 2452 2390 2406 2579 2534 2252 1879 1803 1662 1542 1457 1404 1375 1019 660 864 702 1317 1220 1308 1369 1256 1511 1572 1700 2541 1127 1020 904 868 878
1757 1788 1756 1604 1864 2837 3577 3417 3298 3420 3490 4402 4222 3810 3727 3788 4004 4066 4189 4130 3977 3996 4026 3937 3836 3752 3530 3059 2551 2364 2510 2446 2405 2382 2358 2387 2358 2006 1945 1820 1658 1547 1492 1228 949 940 916 1344 1270 1288 1102 1067 1010 1611 1512 1118 1750 2870 1223 1174 979 706 928
2317 2571 3023 3481 3379 2985 2724 2816 3610 4076 4277 4265 4097 3936 4128 4360 4463 4518 4406 4232 4084 4168 4027 3982 3825 3379 3134 2455 2557 2438 2472 2399 2353 2297 2279 2190 1906 1919 1894 1747 1639 1483 1389 1273 1016 1067 1303 1423 1359 1244 1195 1267 1350 1075 1542 1671 1334 1354 1284 956 957 1161 1177
3479 3319 3269 3298 3504 3414 3624 3800 3703 3591 3830 4040 4197 4332 4466 4604 4474 4320 4168 4071 4166 4121 4213 3898 3421 3051 2944 2541 2671 2670 2572 2538 2430 2243 2146 1874 1854 1826 1795 1679 1558 1307 1451 1405 1490 1520 1372 1689 1437 1240 1206 1357 1316 1342 1560 1838 1956 1080 1520 1114 1161 1021 855
2956 2896 2895 2913 3070 3169 3103 3204 3161 3310 3512 3762 3850 4000 4104 4226 4038 3837 3934 4340 4305 4132 3982 3798 3474 2850 2618 2495 2635 2655 2600 2470 2349 2272 2144 1826 1804 1695 1641 1498 1393 1243 1206 1159 1019 1283 1396 1689 1568 1498 1291 1079 1112 1415 1410 1337 1437 1173 954 870 738 536 417
3059 3112 3146 3146 3108 3098 3202 3215 3235 3158 3215 3445 3729 3752 3702 3817 3864 3811 4276 4257 3776 3608 3688 3530 3274 2869 2398 2622 2644 2637 2447 2279 2204 2118 1998 1720 1716 1637 1498 1260 1076 1209 1222 1071 988 1300 1436 1628 1480 1376 1357 1210 1536 1538 1249 1761 1754 1175 728 469 301 297 354
3122 3208 3217 3428 3474 3356 3315 3253 3097 2970 2920 3008 3189 3404 3646 3629 3777 4120 3985 3256 2983 3031 3110 3145 2998 2534 2222 2478 2437 2236 2096 1972 1876 1944 1854 1618 1577 1516 1391 1142 983 1009 924 847 1234 1502 1446 1339 1272 1042 1172 906 1330 1509 1644 1284 940 654 647 363 181 198 268
3267 3388 3732 4072 3956 3655 3561 3436 3174 2928 2547 2308 2292 2504 2927 3311 3440 3206 2609 2504 2567 2640 2782 2758 2312 2174 1973 2367 2220 2183 2046 2020 1970 1845 1720 1664 1443 1468 1356 1354 962 907 1108 837 1248 1638 1409 812 898 1347 1414 1424 1438 1268 1443 758 544 750 772 806 760 743 459
3434 3608 3934 4038 3888 3807 3663 3354 2933 2649 2404 2316 2312 2474 2551 2488 2340 2247 2264 2222 2166 2261 2321 2264 1963 1941 1811 1722 1902 1961 2005 1874 1811 1707 1464 1372 1300 1154 984 891 864 894 1004 979 1202 1078 702 856 1030 1210 1250 1151 1133 998 713 824 874 916 784 697 702 646 841
3474 3668 3608 3864 4273 4306 4060 3922 3674 3363 3052 2795 2629 2462 2220 1953 1754 1799 1785 1727 1858 2163 2224 1987 1750 1870 1784 1706 1694 1762 1706 1683 1454 1518 1475 1391 1104 1114 939 857 990 972 1146 898 1488 2024 1208 976 1472 1346 1314 1192 1100 957 1148 1159 1208 1019 536 502 411 476 769
2950 3053 3153 3324 3484 3674 3742 3713 3656 3440 3189 3001 2765 2440 2122 1891 1781 1720 1546 1690 1854 2110 2162 1820 1684 1648 1358 1380 1260 1127 1134 1428 1274 1441 1223 1048 980 983 986 836 716 662 648 240 436 711 876 1182 1976 1623 968 826 1076 1358 1308 1201 785 684 420 0 0 0 0
2663 2544 2449 2636 2934 3231 3466 3542 3574 3546 3338 3070 2813 2521 2282 2043 1784 1725 1648 1736 1844 1897 1844 1700 1470 1372 891 1009 1080 1011 1229 1233 1335 1261 1307 911 892 704 704 714 422 755 696 536 464 597 755 942 873 886 718 599 938 588 724 650 583 296 0 0 0 0 0
2140 1993 1940 2246 2650 2922 3128 3338 3396 3342 3202 3061 2847 2566 2365 1983 1875 1788 1505 1555 1582 1694 1635 1543 1458 1400 1174 833 1464 1422 1261 1238 1252 1012 841 855 733 618 472 251 0 0 347 558 896 1108 1132 1018 797 742 671 442 461 128 61 0 0 0 0 0 0 0 0
Wind_Speed
18 17 15 14 13 13 14 15 17 16 16 15 15 17 17 15 15 14 15 16 17 17 18 20 20 20 20 20 20 18 18 18 18 18 18 19 17 19 20 20 20 19 19 20 21 23 24 25 26 25 24 22 20 21 22 23 22 21 19 19 19 18 17
15 15 17 18 18 17 18 19 20 19 18 15 14 17 17 17 17 16 16 17 18 19 20 21 20 19 19 19 18 18 18 18 19 20 19 19 18 19 20 20 22 22 21 20 21 22 24 26 26 26 25 23 21 21 22 22 22 21 20 20 19 20 19
15 15 19 20 17 17 20 21 22 20 20 17 16 16 18 18 19 20 19 19 19 19 20 20 20 19 18 18 18 18 18 19 20 21 22 20 21 22 23 23 23 22 21 20 22 23 25 25 25 26 25 24 22 22 21 22 22 22 20 20 20 21 20
17 17 19 19 18 19 22 24 25 23 20 20 19 19 20 21 21 20 20 21 21 20 19 19 19 19 18 19 18 18 18 19 20 21 21 20 22 23 23 24 24 23 22 23 24 24 24 25 25 25 25 23 23 22 21 21 22 22 21 20 20 21 21
17 18 16 15 16 16 17 20 22 21 20 19 19 20 21 22 22 21 20 19 20 21 20 19 17 17 16 17 16 16 17 18 19 19 20 20 22 24 25 25 26 26 26 26 27 27 26 26 25 24 25 24 24 24 22 22 22 22 21 20 20 21 20
14 17 15 14 15 16 16 19 22 23 22 20 20 21 21 23 22 23 21 19 17 18 18 19 18 17 17 16 15 15 16 18 19 20 21 22 25 26 26 27 27 28 29 29 29 29 29 27 26 25 25 25 25 25 25 24 22 22 22 20 20 21 20
12 12 12 13 15 16 15 16 17 19 20 20 20 21 22 23 25 23 21 19 19 18 18 19 18 18 17 17 16 17 19 21 22 23 24 25 26 28 29 30 30 31 32 34 32 32 32 30 28 28 27 25 25 26 26 25 24 24 23 22 22 22 21
10 10 9 10 12 15 14 12 13 15 18 19 20 22 23 23 24 24 22 18 17 16 16 17 18 18 18 18 18 19 20 23 25 28 27 27 29 32 35 35 35 36 38 38 37 36 35 34 32 29 29 29 28 28 28 28 26 25 25 24 24 24 24
7 8 8 7 9 14 16 14 14 16 19 21 21 22 24 23 23 24 23 21 18 16 15 15 17 18 19 20 20 22 23 26 28 30 28 28 30 33 36 36 36 38 40 40 41 41 38 37 35 32 32 34 34 32 32 30 28 27 26 26 26 26 24
12 11 10 10 10 13 17 18 18 19 21 22 22 23 25 24 24 24 22 20 18 16 15 15 17 20 21 21 22 25 25 25 26 30 31 31 30 33 35 36 36 37 36 37 38 41 42 40 38 37 38 39 38 35 33 32 30 28 27 26 26 25 23
16 16 16 16 15 15 19 20 21 21 24 25 25 25 25 25 25 24 21 19 16 14 16 17 19 21 23 23 26 28 27 26 25 28 30 32 33 37 39 40 38 37 35 34 36 40 38 38 38 40 41 40 38 36 34 33 31 29 27 26 26 24 24
19 20 18 19 18 18 19 20 20 22 25 25 27 28 27 26 26 23 19 18 16 16 18 20 21 23 24 25 27 28 28 26 25 27 30 33 34 38 40 43 43 42 39 39 40 41 40 38 36 37 38 37 37 36 36 34 31 29 27 26 26 25 25
21 21 19 20 21 19 20 20 20 22 25 27 29 29 28 28 26 23 19 18 18 19 21 22 24 25 26 26 26 24 24 25 27 28 30 33 32 34 38 41 41 40 40 39 37 37 36 37 37 35 34 34 36 37 37 35 31 29 28 27 26 25 25
18 18 17 21 22 20 18 19 20 23 26 29 29 29 28 27 26 23 21 20 20 20 22 22 24 25 25 25 23 20 21 25 31 33 33 32 33 36 39 42 40 40 39 37 33 33 35 36 38 35 33 32 34 35 36 34 32 29 28 27 26 26 26
12 13 16 19 19 19 18 18 20 24 27 28 30 30 29 27 25 23 22 21 21 21 22 23 24 24 24 24 23 22 23 28 32 34 35 37 37 37 39 41 42 41 40 39 36 34 36 38 38 35 33 32 33 34 34 33 31 29 27 26 26 26 26
11 13 15 15 16 18 18 16 19 22 26 28 29 29 28 26 25 24 23 23 22 22 22 23 24 25 26 27 27 27 29 32 34 36 37 38 39 39 38 39 40 41 41 41 40 38 39 40 38 35 34 34 35 34 32 30 29 28 26 25 27 28 28
13 12 13 15 17 19 18 17 18 22 23 25 26 27 27 25 24 22 21 20 20 21 21 22 24 25 26 27 30 31 33 34 35 36 39 40 40 40 41 41 40 39 39 39 40 40 42 41 38 33 31 34 35 34 31 30 29 30 32 31 29 29 26
16 14 14 16 19 20 20 19 20 21 22 24 25 26 25 25 23 21 18 18 18 20 21 22 25 27 28 30 33 34 36 37 37 38 39 41 42 43 43 42 41 40 38 38 39 39 40 40 36 31 31 33 33 32 31 29 29 35 35 32 nan 30 27
18 16 14 18 19 20 19 19 20 21 24 26 26 26 26 26 25 22 20 20 21 22 23 24 25 28 30 32 36 38 39 40 39 39 40 42 44 45 44 44 44 43 41 40 40 40 39 38 35 31 32 34 34 31 29 25 28 33 32 30 nan nan 29
22 20 17 17 18 18 19 19 21 23 27 29 29 29 29 29 28 26 26 25 26 27 27 28 28 30 31 33 36 39 41 41 40 41 41 43 46 48 46 46 45 46 45 42 40 38 35 34 33 31 32 34 34 30 25 20 26 31 31 nan nan nan nan
24 22 20 19 19 20 21 22 25 29 32 33 33 33 34 33 31 32 31 30 30 31 32 33 33 34 33 36 38 41 42 42 42 42 41 44 48 49 48 48 45 46 46 42 39 37 33 33 35 33 31 33 33 30 24 20 27 31 30 nan nan nan nan
25 24 21 19 21 23 24 24 27 31 36 39 38 38 38 37 35 35 34 33 33 34 36 36 36 37 36 38 41 42 42 44 45 44 43 46 49 50 50 48 46 47 46 41 38 36 34 33 35 32 31 34 34 30 25 22 31 30 27 nan nan nan nan
27 26 25 24 24 25 27 28 30 36 41 43 42 42 40 39 38 36 36 35 35 36 37 38 38 38 39 41 45 44 45 45 46 46 45 47 49 51 51 48 47 48 45 40 36 36 36 34 34 31 34 37 34 30 26 23 31 30 27 26 nan nan 28
27 27 26 25 26 29 32 35 38 41 44 47 46 44 42 42 40 39 38 38 38 38 38 38 38 40 42 44 47 47 46 46 47 47 47 48 49 51 50 46 46 48 45 39 36 35 35 36 31 31 37 38 32 31 28 26 31 34 30 30 nan nan 30
29 29 29 28 29 32 35 40 45 46 48 49 48 46 46 45 44 42 41 41 39 39 39 38 39 40 43 46 48 47 47 47 48 48 48 48 49 51 50 47 47 48 42 36 35 34 33 34 32 31 36 36 32 32 29 26 33 40 35 36 38 34 31
34 35 34 34 33 36 39 43 48 48 50 51 51 50 49 48 46 45 45 44 42 41 39 38 39 42 45 48 48 47 48 49 49 48 47 48 50 51 50 49 50 48 40 35 34 33 31 33 32 33 35 36 34 33 29 29 31 37 40 43 41 38 35
37 35 36 35 38 41 44 45 48 50 53 54 53 51 51 50 50 49 47 46 44 42 40 41 44 46 48 48 48 48 50 51 49 48 47 48 51 54 55 55 52 46 38 35 35 34 34 35 33 33 34 35 37 35 31 30 31 41 45 46 44 43 40
41 43 45 47 45 43 45 47 50 54 56 55 53 52 52 52 53 51 49 47 45 45 46 48 48 49 49 49 48 49 50 50 48 46 46 48 52 56 59 56 46 37 34 33 34 36 37 37 34 33 33 32 32 29 31 39 42 38 48 48 48 49 44
45 48 50 50 49 46 46 48 50 53 55 54 54 52 52 54 55 52 49 48 48 48 50 50 50 51 50 50 50 51 51 51 50 48 47 50 53 56 55 49 40 36 35 35 35 37 37 36 34 33 31 30 30 30 31 35 41 40 42 51 50 50 44
49 53 54 53 52 49 49 49 50 52 54 55 55 55 55 55 52 48 48 50 49 48 50 50 51 52 52 52 53 53 51 50 49 48 50 52 51 50 46 41 37 37 37 35 35 35 34 33 32 31 30 30 29 30 32 37 39 45 49 53 53 47 41
51 53 54 53 52 49 48 49 51 54 56 56 59 60 57 50 46 45 48 48 47 47 48 48 49 50 51 53 53 52 50 50 50 51 50 48 46 45 43 41 40 41 39 38 37 35 33 33 33 32 30 29 28 30 35 41 41 44 52 53 48 42 39
56 55 54 51 50 49 49 49 51 55 59 57 57 56 50 44 43 46 46 46 46 46 46 46 46 46 48 48 47 47 48 49 48 48 45 41 39 42 45 43 43 42 40 39 39 38 36 34 33 31 29 27 27 33 36 40 40 42 46 43 41 40 44
54 53 52 51 49 48 48 50 53 54 56 55 50 48 46 46 46 47 46 46 46 46 46 46 47 46 45 43 42 43 42 42 41 40 37 36 39 43 45 47 44 43 43 42 43 42 39 35 32 29 28 29 30 34 36 38 40 40 39 39 40 43 50
50 51 50 50 50 51 51 52 53 52 53 51 48 46 46 46 46 46 46 47 46 47 47 48 47 46 45 44 42 40 38 36 38 36 35 38 41 42 43 43 42 42 43 44 44 42 37 32 28 28 31 34 35 36 36 37 38 38 38 41 44 47 51
50 49 49 50 50 50 49 49 51 50 50 49 47 46 45 46 46 47 48 47 48 48 48 48 48 46 46 44 42 40 38 36 38 35 36 40 41 42 42 40 40 43 45 43 41 38 31 27 31 35 37 38 38 36 35 36 37 41 48 49 48 46 45
50 51 51 51 50 50 50 50 50 49 49 47 46 46 46 48 48 48 49 49 49 49 50 49 47 46 45 44 43 42 41 38 39 38 40 43 43 45 46 49 47 43 39 39 39 38 33 33 37 38 37 37 38 36 36 37 46 54 57 nan nan nan nan
53 51 52 52 53 53 53 51 49 49 50 48 47 47 48 49 50 50 51 50 50 50 50 48 46 43 44 44 42 44 43 43 43 43 42 43 44 45 45 41 38 43 44 41 36 35 36 40 41 41 38 36 39 45 49 50 53 56 nan nan nan nan nan
56 54 53 53 54 54 53 51 48 49 49 48 48 49 50 52 52 51 52 51 50 49 48 46 44 44 43 46 49 48 45 44 44 43 44 45 45 46 46 45 nan nan 42 43 42 43 45 43 39 38 40 42 43 44 nan nan nan nan nan nan nan nan nan
Wind_Direction
320 327 330 328 331 340 351 352 352 348 342 332 323 324 324 319 318 312 308 308 311 310 309 311 312 312 317 315 319 316 314 312 313 318 322 324 325 323 323 319 320 323 320 316 315 315 315 316 316 319 320 322 323 322 320 318 316 313 311 310 309 305 307
325 341 340 334 336 343 348 346 348 348 345 341 331 330 328 327 320 318 312 311 312 312 310 311 313 314 316 315 313 318 316 316 314 311 316 319 322 321 322 319 315 314 314 311 310 310 311 314 315 317 320 320 322 321 320 316 315 313 310 309 309 307 306
320 335 336 333 335 339 343 342 344 344 344 342 343 338 336 331 326 327 320 316 316 316 313 315 317 315 312 312 312 315 315 313 312 312 315 318 321 319 317 315 311 309 309 310 306 306 307 310 312 315 318 318 319 319 318 316 313 312 309 306 308 308 307
308 324 327 326 333 340 342 343 345 344 341 343 343 343 339 336 331 326 324 323 321 319 321 317 315 315 312 312 311 310 312 310 308 309 313 315 315 312 310 310 307 306 306 306 305 304 305 307 310 312 314 313 314 316 317 316 313 312 308 305 305 306 305
303 307 309 315 327 329 333 339 342 339 339 341 341 337 336 334 331 327 325 324 324 324 323 319 310 310 307 308 301 300 305 308 306 306 307 308 307 306 308 310 307 307 306 306 307 307 306 307 309 310 310 310 312 313 316 315 314 310 306 304 302 303 305
291 293 301 312 322 329 332 338 342 339 334 336 336 334 333 336 335 337 330 324 323 317 311 311 311 309 310 308 303 298 297 299 300 301 304 307 308 310 312 313 311 312 312 311 309 308 309 310 311 309 308 309 311 311 313 314 313 311 307 303 302 303 304
272 276 284 295 306 316 325 329 330 331 327 324 325 325 330 336 340 338 331 328 324 314 312 313 312 309 304 298 300 297 298 300 303 310 310 313 314 314 316 315 314 314 313 309 309 307 308 312 314 310 306 305 304 305 306 309 310 307 305 305 305 305 303
266 248 263 280 287 290 295 302 306 310 310 311 317 323 330 333 335 335 333 324 319 316 311 313 308 303 297 294 293 301 306 315 319 318 312 309 311 318 320 317 314 313 311 311 310 309 308 310 309 308 306 303 301 301 303 305 305 304 302 304 305 306 302
263 257 270 286 280 276 280 285 288 291 302 311 319 318 322 326 330 328 327 323 317 317 314 311 305 297 292 293 301 314 323 328 327 323 322 317 317 325 324 321 318 314 312 310 308 306 306 305 303 303 305 302 299 299 302 304 304 302 300 302 305 303 299
255 268 276 278 272 270 271 275 285 288 298 303 306 311 316 319 321 321 319 319 314 316 312 305 295 291 293 302 320 331 328 326 324 327 330 330 325 331 329 323 318 313 313 313 310 306 304 303 301 301 304 304 300 299 302 305 304 301 301 302 303 301 297
248 262 273 285 285 276 272 281 294 296 294 296 300 304 305 310 316 318 313 309 307 301 303 297 293 296 305 321 333 327 324 325 324 326 330 331 330 333 328 320 314 311 313 316 316 311 311 307 303 302 304 304 301 298 302 305 304 302 302 301 300 300 296
241 255 268 283 284 278 282 288 290 287 289 289 294 298 299 303 312 315 309 306 301 296 293 296 301 309 320 330 331 328 331 325 321 323 331 334 335 337 333 325 327 327 326 322 320 322 324 320 315 309 307 306 303 300 302 303 301 302 302 301 299 297 296
239 251 265 281 283 274 273 284 299 297 291 289 292 294 295 302 309 312 307 304 301 292 293 299 307 314 322 328 333 329 329 321 315 321 338 342 337 337 336 334 340 338 333 329 325 323 325 324 323 318 313 311 308 306 305 302 299 299 299 298 297 296 297
241 250 263 274 280 281 283 285 286 290 291 291 291 291 291 298 303 303 302 301 296 295 297 300 311 318 325 331 333 333 323 312 315 329 340 338 336 338 338 337 338 335 329 325 326 328 328 325 325 325 321 318 313 310 308 304 300 299 297 295 295 296 299
246 260 269 281 284 280 274 278 285 291 293 292 290 291 294 295 296 293 293 294 295 301 307 307 312 318 326 328 327 324 323 320 324 330 329 330 334 336 337 337 336 334 330 327 327 327 328 325 326 326 322 318 312 308 309 309 303 297 295 294 297 298 299
246 260 273 281 286 283 278 280 283 289 290 288 290 292 295 294 294 296 298 301 305 310 313 312 316 318 324 326 323 323 328 331 325 325 325 329 335 337 337 335 334 334 332 330 328 322 320 321 323 325 322 316 311 308 309 308 300 295 298 292 291 298 298
232 244 257 268 274 279 276 281 287 288 290 290 293 295 295 293 294 297 303 306 312 316 319 317 319 327 327 322 318 325 328 330 329 323 325 329 333 334 335 335 334 333 331 327 323 318 313 314 317 320 319 317 312 311 310 306 298 298 297 295 293 294 298
225 237 248 263 272 273 275 284 291 297 301 301 300 299 294 291 292 296 303 304 310 314 315 316 317 321 321 320 322 329 329 326 327 326 325 327 330 333 333 332 333 332 328 323 318 311 308 311 312 313 315 314 313 311 308 302 299 299 301 300 nan 300 301
224 236 248 258 265 272 281 292 297 297 295 295 296 297 296 292 292 298 300 300 304 306 312 316 320 320 323 327 331 334 331 326 327 328 327 327 329 329 329 330 330 328 326 324 318 311 308 307 309 308 311 312 311 308 302 295 297 303 304 305 nan nan 313
214 217 227 237 249 260 267 270 275 282 284 284 289 295 292 291 293 293 295 299 304 309 310 311 315 318 324 329 333 332 331 326 327 325 328 329 326 327 329 328 328 328 325 322 316 311 306 305 308 306 308 310 309 303 295 292 294 303 305 nan nan nan nan
217 218 221 229 242 256 269 275 274 276 278 282 286 287 287 287 290 289 293 299 305 305 305 308 311 314 319 324 327 328 328 328 326 325 325 327 325 325 325 326 328 324 323 319 316 312 304 305 305 305 307 308 307 300 289 281 292 300 304 nan nan nan nan
215 218 222 229 247 256 265 273 271 269 273 278 282 283 283 284 287 291 295 300 302 300 302 307 309 311 314 317 319 321 325 326 327 323 321 324 326 323 322 325 328 321 317 313 309 306 303 301 300 305 306 306 303 296 286 276 290 296 303 nan nan nan nan
213 221 227 235 246 253 258 262 260 261 267 274 277 277 278 280 284 290 295 299 297 297 300 304 306 309 311 313 314 319 321 323 323 321 319 321 323 326 324 326 326 319 315 311 309 308 305 302 305 306 305 304 298 289 280 269 281 293 298 299 nan nan 307
214 223 228 235 242 249 257 262 262 260 264 269 271 273 275 280 283 288 293 294 293 295 298 301 303 304 306 309 313 315 317 318 318 316 316 317 320 322 322 321 320 318 313 310 307 306 306 303 304 305 304 302 290 280 276 269 273 285 287 289 nan nan 303
221 226 231 236 245 252 258 261 262 263 264 267 270 273 276 280 284 287 289 289 289 289 292 296 298 301 305 308 310 313 314 314 314 313 314 316 317 318 319 318 315 313 308 304 303 304 304 307 311 310 301 293 280 268 267 261 266 279 282 286 291 296 298
229 233 238 241 244 250 253 256 260 263 265 268 270 274 278 280 282 284 284 284 283 285 288 292 295 299 301 304 307 309 310 310 310 311 312 311 312 314 315 312 310 308 305 304 305 306 307 309 311 307 298 283 270 265 265 260 255 271 283 283 284 293 295
232 235 242 246 249 252 252 255 259 262 265 265 269 273 276 278 279 280 281 280 279 281 283 287 292 297 299 301 304 305 307 307 309 310 310 310 309 309 311 310 307 302 298 301 306 308 308 306 304 298 291 280 269 261 260 258 260 272 282 280 281 288 291
239 241 244 246 250 251 254 258 260 261 262 266 270 273 276 278 279 278 277 276 278 281 284 288 293 295 296 299 299 300 302 306 307 306 305 308 307 307 306 302 298 297 301 304 308 312 310 305 297 287 281 278 275 274 271 271 272 276 280 280 281 284 288
244 246 249 251 252 255 258 260 262 262 264 266 269 272 274 276 275 274 275 278 284 288 290 291 292 293 296 299 299 297 298 300 303 302 303 305 307 308 303 298 296 298 300 307 310 311 307 298 289 284 284 284 280 276 279 281 281 283 283 288 288 286 287
243 246 249 250 253 256 257 257 258 259 259 260 262 264 264 265 268 273 280 285 287 288 289 289 290 291 293 295 296 296 297 299 301 303 302 304 306 305 301 298 299 299 302 308 309 308 302 295 290 290 293 291 285 284 286 287 282 284 281 287 290 289 290
241 245 248 251 253 256 258 260 261 259 257 256 256 256 258 261 269 277 281 281 282 285 287 290 291 293 293 292 293 295 295 296 297 300 301 302 305 303 299 303 303 304 307 309 307 303 298 293 290 291 293 291 289 290 294 291 284 283 286 290 292 289 289
240 243 247 250 251 251 251 252 253 256 256 253 253 257 261 268 272 274 274 276 278 280 282 285 288 290 290 290 291 293 295 297 299 299 299 302 305 305 299 301 302 304 306 307 304 300 296 290 288 293 296 296 294 296 293 288 290 293 291 290 290 294 302
236 237 239 241 243 247 248 249 249 249 251 253 255 260 265 269 268 269 272 275 277 278 280 282 286 288 288 291 295 298 300 300 297 296 295 298 298 296 295 297 303 305 305 306 302 297 294 295 298 298 298 295 294 292 290 292 296 295 293 294 298 304 305
238 238 238 241 244 248 250 253 255 256 257 258 261 264 267 269 270 273 275 275 276 278 280 282 286 287 288 292 295 297 299 300 293 291 294 293 293 295 296 298 299 301 303 301 296 295 294 298 300 301 299 300 299 295 293 295 293 294 297 300 303 303 304
239 241 244 245 244 246 249 254 257 260 261 261 263 264 266 269 273 276 276 276 277 279 280 281 284 284 286 289 292 292 291 292 292 292 291 290 285 280 278 283 293 299 294 279 278 279 288 298 298 302 304 303 300 297 293 289 290 288 283 286 286 289 297
242 243 244 245 245 246 247 251 257 261 262 264 265 265 267 270 273 276 277 277 277 278 277 279 281 283 286 290 292 292 293 291 290 289 288 288 287 288 286 281 279 271 276 276 261 256 255 273 294 295 296 298 289 279 280 283 283 286 285 nan nan nan nan
244 245 245 245 245 246 250 254 258 262 264 265 265 265 268 271 273 273 272 273 274 274 274 277 279 284 287 290 291 289 291 290 290 290 288 289 291 291 291 291 280 268 264 262 258 259 271 281 282 278 275 279 288 280 274 277 284 286 nan nan nan nan nan
244 246 247 247 248 250 252 255 257 260 262 262 263 265 268 271 271 270 270 270 270 272 275 279 283 286 288 286 280 279 284 288 288 289 288 289 291 292 292 289 nan nan 269 268 263 269 281 284 276 269 269 268 272 282 nan nan nan nan nan nan nan nan nan